DAL2309 KMCO-KATL

Flight info

Callsign DAL2309
Flight time N/A
Altitude 30000
Route JEEMY3 PAINN SHRKS LAIRI LARZZ SITTH2
Aircraft B738/M-SDE2E3FGHIRWXY/LB1

Departure

Time 2026-04-21 14:33
Airport Orlando International Airport (KMCO)

Arrival

Time N/A
Airport Hartsfield Jackson Atlanta International Airport (KATL)
Time Latitude Longitude Altitude Speed Heading
2026-04-21 14:13 28.42800 -81.30012 87 ft 0 kts 307°
2026-04-21 14:20 28.42795 -81.30006 87 ft 2 kts 307°
2026-04-21 14:20 28.42787 -81.29992 87 ft 2 kts 307°
2026-04-21 14:21 28.42777 -81.29979 87 ft 2 kts 307°
2026-04-21 14:21 28.42768 -81.29965 87 ft 2 kts 307°
2026-04-21 14:21 28.42759 -81.29951 87 ft 2 kts 307°
2026-04-21 14:21 28.42750 -81.29939 87 ft 2 kts 307°
2026-04-21 14:22 28.42741 -81.29925 87 ft 2 kts 307°
2026-04-21 14:22 28.42732 -81.29911 87 ft 2 kts 307°
2026-04-21 14:22 28.42723 -81.29898 87 ft 2 kts 307°
2026-04-21 14:22 28.42713 -81.29884 87 ft 2 kts 327°
2026-04-21 14:23 28.42706 -81.29881 87 ft 2 kts 342°
2026-04-21 14:23 28.42696 -81.29878 87 ft 2 kts
2026-04-21 14:23 28.42683 -81.29881 87 ft 2 kts
2026-04-21 14:23 28.42674 -81.29881 87 ft 0 kts
2026-04-21 14:25 28.42675 -81.29881 87 ft 0 kts
2026-04-21 14:26 28.42682 -81.29881 87 ft 3 kts
2026-04-21 14:26 28.42715 -81.29881 87 ft 5 kts 358°
2026-04-21 14:26 28.42761 -81.29882 88 ft 7 kts 359°
2026-04-21 14:26 28.42805 -81.29883 89 ft 1 kts
2026-04-21 14:27 28.42834 -81.29883 89 ft 7 kts 359°
2026-04-21 14:27 28.42874 -81.29880 89 ft 0 kts 12°
2026-04-21 14:28 28.42876 -81.29880 89 ft 0 kts 12°
2026-04-21 14:28 28.42877 -81.29879 89 ft 0 kts 12°
2026-04-21 14:29 28.42879 -81.29879 89 ft 3 kts 13°
2026-04-21 14:29 28.42890 -81.29875 89 ft 0 kts 18°
2026-04-21 14:30 28.42893 -81.29874 90 ft 2 kts 19°
2026-04-21 14:30 28.42904 -81.29869 90 ft 0 kts 25°
2026-04-21 14:31 28.42910 -81.29866 90 ft 3 kts 28°
2026-04-21 14:31 28.42946 -81.29831 90 ft 6 kts 52°
2026-04-21 14:31 28.42964 -81.29796 90 ft 30 kts 67°
2026-04-21 14:31 28.42845 -81.29564 89 ft 36 kts 176°
2026-04-21 14:32 28.42522 -81.29560 87 ft 58 kts 177°
2026-04-21 14:32 28.42243 -81.29564 87 ft 57 kts 179°
2026-04-21 14:32 28.41464 -81.29564 88 ft 163 kts 180°
2026-04-21 14:32 28.40247 -81.29676 555 ft 167 kts 184°
2026-04-21 14:33 28.39093 -81.29940 763 ft 173 kts 191°
2026-04-21 14:33 28.37935 -81.30390 944 ft 176 kts 193°
2026-04-21 14:33 28.36837 -81.30308 1229 ft 156 kts 140°
2026-04-21 14:33 28.36240 -81.29280 1247 ft 165 kts 95°
2026-04-21 14:34 28.36427 -81.27965 1464 ft 172 kts 62°
2026-04-21 14:34 28.37162 -81.27022 2152 ft 156 kts 37°
2026-04-21 14:34 28.38193 -81.26573 2830 ft 173 kts 13°
2026-04-21 14:34 28.39373 -81.26642 3915 ft 177 kts 352°
2026-04-21 14:35 28.40485 -81.27181 4973 ft 180 kts 333°
2026-04-21 14:35 28.41407 -81.28109 6005 ft 183 kts 316°
2026-04-21 14:35 28.42069 -81.29314 7010 ft 185 kts 299°
2026-04-21 14:35 28.42443 -81.30666 7978 ft 185 kts 285°
2026-04-21 14:36 28.42626 -81.32240 8417 ft 213 kts 289°
2026-04-21 14:36 28.43463 -81.33411 9503 ft 192 kts 337°
2026-04-21 14:36 28.44862 -81.33506 9965 ft 214 kts
2026-04-21 14:36 28.46352 -81.33475 10425 ft 233 kts
2026-04-21 14:37 28.47815 -81.33146 11888 ft 196 kts 20°
2026-04-21 14:37 28.48506 -81.32574 13743 ft 122 kts 41°
2026-04-21 14:37 28.49117 -81.31496 12358 ft 240 kts 62°
2026-04-21 14:37 28.49978 -81.30388 7336 ft 373 kts 307°
2026-04-21 14:38 28.48002 -81.29868 1814 ft 441 kts 157°
2026-04-21 14:38 28.45129 -81.29507 740 ft 406 kts 181°
2026-04-21 14:38 28.42495 -81.29584 127 ft 352 kts 178°
2026-04-21 14:38 28.40243 -81.29727 141 ft 297 kts 183°
2026-04-21 14:39 28.38552 -81.30169 1143 ft 202 kts 179°
2026-04-21 14:39 28.37681 -81.29410 569 ft 171 kts 90°
2026-04-21 14:39 28.38088 -81.28261 943 ft 173 kts 36°
2026-04-21 14:39 28.39412 -81.28541 698 ft 267 kts 315°
2026-04-21 14:40 28.40928 -81.29565 119 ft 248 kts
2026-04-21 14:40 28.42428 -81.29600 86 ft 147 kts 346°
2026-04-21 14:40 28.42858 -81.29886 89 ft 12 kts 328°
2026-04-21 14:40 28.42875 -81.29899 88 ft 16 kts 328°
2026-04-21 14:41 28.43165 -81.30098 84 ft 39 kts
2026-04-21 14:41 28.43473 -81.29942 90 ft 78 kts 40°
2026-04-21 14:41 28.43895 -81.29445 89 ft 94 kts 41°
2026-04-21 14:41 28.44369 -81.29050 89 ft 88 kts 21°
2026-04-21 14:42 28.44922 -81.28651 111 ft 92 kts
2026-04-21 14:42 28.45662 -81.28376 95 ft 91 kts 34°
2026-04-21 14:42 28.46082 -81.28198 94 ft 42 kts 329°